Regional Weather Roundup
Issued by NWS

Home | Current Version | Previous Version | Text Only | Print | Product List | Glossary On
Versions: 1 2 3 4 5 6 7 8 9 10 11 12 13 14 15 16 17 18 19 20 21 22 23 24 25 26 27 28 29 30 31 32 33 34 35 36 37 38 39 40 41 42 43 44 45 46 47 48 49 50
000
ASUS43 KOAX 202210
RWRNE

WEATHER ROUNDUP FOR NEBRASKA
NATIONAL WEATHER SERVICE OMAHA NE
400 PM CST FRI JAN 20 2017

NOTES: SATELLITE DATA IS BEING USED TO AUGMENT CLOUD COVER ABOVE
       12000 FEET.
       "FAIR" INDICATES FEW OR NO CLOUDS BELOW 12,000 FEET WITH NO
       SIGNIFICANT WEATHER AND/OR OBSTRUCTIONS TO VISIBILITY.

  * THESE STATIONS DO NOT REPORT WEATHER SUCH AS RAIN...SNOW OR FOG.

NEZ001>004-019>022-054>056-202300-
NEBRASKA PANHANDLE

CITY           SKY/WX    TMP DP  RH WIND       PRES   REMARKS
SCOTTSBLUFF    CLOUDY    39  32  76 NW10      29.38R WCI  32
ALLIANCE       CLOUDY    40  30  67 N12       29.34R WCI  33
CHADRON        CLOUDY    37  32  82 W8        29.35S WCI  31
KIMBALL        CLOUDY    38  30  73 NW16      29.38R WCI  29
SIDNEY         PTSUNNY   41  29  62 NW18      29.36R
$$

NEZ057>060-069>072-079>082-202300-
SOUTHWEST NEBRASKA

CITY           SKY/WX    TMP DP  RH WIND       PRES   REMARKS
NORTH PLATTE   MOSUNNY   40  33  76 S7        29.35S
IMPERIAL       CLOUDY    42  34  73 S3        29.35S
LEXINGTON      PTSUNNY   42  37  82 S5        29.37F
MCCOOK         CLOUDY    38  35  89 CALM      29.36F
OGALLALA       CLOUDY    42  32  68 W5        29.35R
$$

NEZ005>010-023>029-035>040-094-202300-
NORTH CENTRAL NEBRASKA

CITY           SKY/WX    TMP DP  RH WIND       PRES   REMARKS
VALENTINE      PTSUNNY   40  27  59 NW8       29.33S WCI  34
AINSWORTH      SUNNY     41  32  69 S7        29.33R
BROKEN BOW     CLOUDY    41  37  86 S8        29.35S
O`NEILL        CLOUDY    45  39  80 S10       29.37R
ORD            CLOUDY    40  38  93 S3        29.37S FOG
THEDFORD       CLOUDY    39  33  78 SW7       29.34S WCI  34
$$

NEZ041-046>049-061>064-073>077-083>087-202300-
SOUTH CENTRAL NEBRASKA

CITY           SKY/WX    TMP DP  RH WIND       PRES   REMARKS
GRAND ISLAND   LGT RAIN  41  41 100 S3        29.40R VSB 1
AURORA         DRZL/FOG  40  40 100 SE5       29.40R VSB 1/2
HASTINGS       FOG       40  40 100 SE6       29.40S VSB 1/4
HEBRON         DRIZZLE   44  44 100 S5        29.41S
HOLDREGE       CLOUDY    39  39  98 CALM      29.38F
KEARNEY *      CLOUDY    41  -8  12 CALM      29.39S VSB 1
YORK           MIX PCPN  41  41 100 SE7       29.41S VSB 1/2
$$

NEZ011>018-030>034-042>045-202300-
NORTHEAST NEBRASKA

CITY           SKY/WX    TMP DP  RH WIND       PRES   REMARKS
NORFOLK        CLOUDY    40  39  97 SE8       29.40S FOG     WCI  34
ALBION         CLOUDY   N/A N/A N/A S8        29.40S HAZE
BLAIR          CLOUDY    42  41  98 E10       29.44S FOG
FREMONT        CLOUDY    42  42 100 E7        29.44F FOG
TEKAMAH        CLOUDY    41  39  93 SE8       29.45F
WAYNE          CLOUDY    41  41  99 SE8       29.43S
$$

NEZ050>053-065>068-078-088>093-202300-
SOUTHEAST NEBRASKA

CITY           SKY/WX    TMP DP  RH WIND       PRES   REMARKS
LINCOLN        CLOUDY    45  43  93 E8        29.44S
OMAHA EPPLEY   DRIZZLE   43  39  86 E8        29.45F FOG
BEATRICE       CLOUDY    46  46 100 SE6       29.42S FOG
FALLS CITY     LGT RAIN  45  45 100 E7        29.44R VSB 1/2
NEBRASKA CITY  FOG       43  43 100 SE7       29.45R VSB 1
PLATTSMOUTH    DRIZZLE   42  40  93 E5        29.45S
$$

NEZ044-045-051>053-067-202300-
OMAHA AREA

CITY           SKY/WX    TMP DP  RH WIND       PRES   REMARKS
OMAHA EPPLEY   DRIZZLE   43  39  86 E8        29.45F FOG
BLAIR          CLOUDY    42  41  98 E10       29.44S FOG
FREMONT        CLOUDY    42  42 100 E7        29.44F FOG
MILLARD        DRIZZLE   45  43  95 E6        29.45S
OFFUTT AFB     LGT RAIN  42  42 100 E7        29.45S
PLATTSMOUTH    DRIZZLE   42  40  93 E5        29.45S
WAHOO          CLOUDY    42  41  98 SE7       29.44R FOG
$$




USA.gov is the U.S. government's official web portal to all federal, state and local government web resources and services.